Presure
130 145 111 154 158 128 138 115 128 163 97 101 165 256 267 135 154 140 362 317 144 298 292 300 306 301 326 322 336 366 447 325 305 290 315 292 291 296 283 289 275 278 271 264
132 143 139 135 107 134 148 115 155 140 108 101 202 205 200 173 179 371 379 323 135 298 292 307 301 294 301 326 324 351 471 327 304 307 309 293 286 290 284 268 277 266 278 276
146 176 164 120 139 137 117 106 104 149 97 150 216 180 195 210 283 376 390 331 134 302 294 292 295 293 296 312 321 324 353 370 314 305 285 300 288 287 293 287 260 276 274 265
153 96 149 119 121 143 113 113 117 112 102 158 175 181 144 166 324 382 373 144 134 298 292 288 313 292 292 295 315 319 332 414 309 302 296 301 280 275 274 269 268 261 252 251
214 157 140 145 130 111 146 105 155 151 115 142 205 166 248 216 181 390 172 142 136 305 293 289 301 274 290 286 294 316 318 375 311 303 284 280 287 304 288 272 270 290 274 282
145 149 137 137 128 143 144 142 100 133 162 224 164 193 167 141 280 400 365 373 126 308 296 289 293 283 284 286 287 298 327 349 310 294 302 306 292 286 290 284 279 281 264 268
163 137 147 132 126 125 122 128 114 195 199 150 175 181 191 252 187 410 368 176 175 293 298 290 285 279 274 267 281 286 303 329 311 281 271 268 283 277 272 272 273 274 271 273
149 145 116 118 129 130 95 127 107 147 192 223 178 154 207 216 224 395 182 352 343 304 307 293 283 284 271 270 265 276 281 296 313 287 281 281 274 265 268 267 271 269 267 269
141 136 115 145 143 109 135 98 99 104 238 141 230 161 247 234 206 314 137 223 361 318 300 295 288 282 277 273 268 272 271 273 288 300 293 283 267 263 263 262 270 271 270 255
140 144 130 134 125 129 120 141 91 222 101 226 186 153 231 245 218 290 222 119 377 334 302 297 303 287 281 279 276 264 266 263 246 264 272 278 284 284 285 284 284 285 286 277
142 136 139 104 109 112 154 93 134 202 181 202 164 148 140 173 212 246 289 385 382 348 323 302 289 308 292 279 274 265 265 259 263 262 268 262 263 252 263 257 256 263 265 255
151 128 149 128 112 125 141 187 201 200 251 220 139 165 159 248 184 256 233 259 281 365 338 310 294 280 284 294 279 284 271 269 262 268 260 257 256 254 254 251 252 254 250 245
140 129 128 139 95 142 191 237 177 133 178 222 193 212 238 206 115 249 287 287 379 351 352 326 298 288 278 271 299 286 282 266 272 258 260 250 251 254 253 261 243 241 243 245
126 144 123 121 128 190 127 200 126 189 187 169 222 164 124 256 211 251 290 303 351 357 370 335 315 295 286 275 276 299 295 278 268 270 265 254 268 257 246 247 249 254 254 254
144 124 109 137 179 150 139 214 139 207 221 209 181 155 235 228 254 183 206 172 300 360 342 354 321 304 289 279 267 258 297 292 292 288 285 276 272 267 263 258 261 272 275 280
143 153 146 156 209 107 159 124 212 216 150 123 129 233 243 194 251 235 242 270 273 228 354 347 342 311 290 284 272 265 257 290 282 278 282 286 286 283 281 277 272 271 272 276
137 137 191 147 127 218 204 192 221 154 234 134 203 201 134 157 197 242 210 220 269 275 341 344 344 321 301 282 277 268 265 263 264 272 271 272 268 260 265 257 253 261 265 261
147 173 164 121 197 228 156 196 133 145 199 150 214 162 232 235 253 248 234 252 243 287 334 336 332 338 307 292 274 268 264 259 260 260 258 258 273 267 268 258 261 269 274 277
186 159 180 216 146 204 137 155 114 170 142 159 239 124 226 216 250 278 167 246 224 316 333 329 336 315 318 300 285 277 269 268 262 260 260 258 255 261 271 264 269 271 268 264
170 147 207 215 202 166 209 222 222 116 132 231 161 220 239 221 256 218 230 265 261 299 340 323 314 315 318 319 293 284 278 276 273 269 265 263 262 259 254 258 276 274 265 258
158 174 215 200 198 217 181 222 193 226 192 118 177 233 237 254 230 245 234 273 271 448 353 325 305 307 308 309 315 287 289 282 276 271 276 271 267 260 261 262 251 273 271 267
174 204 116 224 194 191 178 133 128 214 233 228 204 241 263 253 247 252 230 266 239 336 405 326 306 300 305 294 302 296 290 313 300 291 280 276 275 270 267 266 268 262 260 266
216 194 166 180 221 209 222 123 216 214 234 234 238 221 246 253 243 225 206 251 257 286 423 324 309 303 296 287 292 296 293 292 288 294 309 306 303 299 296 287 285 275 271 268
139 205 200 201 195 212 200 217 228 229 226 233 244 237 254 195 237 232 253 272 235 273 364 401 316 304 295 286 291 297 291 290 287 279 277 281 281 283 282 276 274 278 331 311
183 195 217 212 160 206 225 214 224 231 236 223 235 255 253 225 247 260 230 239 260 287 360 376 342 306 295 286 280 282 287 286 296 279 285 288 290 276 288 320 316 317 294 292
215 207 213 196 214 218 214 228 232 231 224 237 244 248 257 234 238 246 254 264 312 311 360 352 356 309 295 291 288 286 286 280 290 286 301 292 282 303 315 303 309 312 310 321
209 215 192 210 212 210 221 226 223 232 245 229 265 274 253 233 248 242 265 268 304 399 359 339 348 344 298 299 289 292 280 282 275 282 281 283 277 298 297 285 301 287 290 293
Wind_Speed
56 57 23 57 60 57 61 21 53 84 32 35 64 103 96 46 66 52 10 22 51 22 25 24 25 26 33 24 28 22 31 48 47 54 64 60 57 55 48 46 44 43 47 50
47 55 29 57 27 54 67 21 79 53 42 41 93 96 114 75 96 21 7 18 47 19 22 19 20 25 28 29 26 25 9 44 48 51 57 55 48 47 46 41 45 46 47 49
50 52 54 41 62 55 26 14 34 28 35 62 97 77 72 85 96 17 9 13 45 13 16 17 19 19 24 29 26 20 8 33 46 49 45 47 53 49 45 44 41 43 43 46
48 19 51 36 41 65 13 37 22 23 35 69 66 71 59 72 73 14 10 46 46 12 13 14 10 14 17 21 26 18 12 10 38 39 41 48 53 49 48 42 46 44 46 49
45 48 52 56 46 7 63 14 76 66 29 54 92 73 109 105 101 12 42 44 45 8 9 11 6 17 9 14 24 18 10 11 39 41 38 38 39 46 48 46 41 39 39 39
27 49 52 44 47 59 61 66 19 36 67 88 78 94 66 53 92 12 10 11 39 8 7 8 3 4 6 10 16 23 10 17 33 32 28 33 35 31 34 39 40 37 37 41
43 50 53 50 40 24 22 29 21 85 83 59 89 70 75 90 86 12 11 37 34 13 8 6 6 4 6 10 8 16 19 15 34 27 24 21 23 28 27 27 22 20 24 22
43 42 37 38 42 24 15 58 12 49 73 88 92 63 90 105 96 17 34 12 14 11 11 9 9 8 8 5 7 7 13 14 18 28 24 29 23 17 19 21 26 23 21 20
44 40 41 52 60 5 67 12 18 27 91 65 94 58 95 93 91 99 42 23 17 14 12 12 12 12 11 10 6 5 8 10 14 15 23 26 21 20 22 22 24 25 26 34
42 44 44 50 58 43 43 72 17 79 28 93 80 50 88 92 97 94 26 39 18 17 14 15 16 15 15 15 16 11 9 10 8 11 16 19 20 23 20 20 20 23 22 22
40 39 45 20 35 30 52 10 74 63 74 86 80 51 50 79 77 78 99 12 16 19 20 17 15 20 20 19 18 16 17 14 16 17 17 19 21 20 21 20 21 19 21 25
39 35 43 50 49 66 70 55 71 67 89 84 58 54 71 99 56 76 71 67 21 19 21 19 19 17 17 24 25 26 25 25 23 24 22 21 22 22 23 25 26 28 30 29
34 36 41 45 25 61 49 79 71 67 81 86 79 87 94 92 28 74 102 87 13 16 20 22 21 21 19 17 27 31 30 26 30 25 26 24 25 27 28 30 26 25 26 28
29 36 44 52 46 54 74 56 64 75 76 77 91 61 49 99 87 81 108 45 19 16 21 23 24 23 22 20 21 30 33 31 29 30 31 28 34 33 28 28 29 32 33 32
40 38 40 48 46 51 70 78 64 73 87 73 75 62 101 91 104 65 77 49 78 17 19 25 25 25 24 23 20 18 29 31 32 33 34 34 34 33 32 32 34 36 36 37
43 46 43 44 59 47 51 67 64 84 79 32 51 99 108 71 96 85 74 110 89 57 22 21 26 26 26 26 23 22 21 28 27 27 27 28 30 31 31 29 28 28 29 29
45 44 55 53 62 72 64 43 73 72 95 60 82 65 50 49 71 81 67 74 102 88 23 24 25 27 28 28 27 26 24 23 22 25 26 28 28 27 29 27 28 29 30 30
50 49 44 50 59 89 48 64 68 78 86 50 76 65 106 94 95 88 72 91 86 77 26 24 24 28 29 30 29 29 28 27 26 25 25 24 30 29 31 30 30 30 29 30
61 57 55 84 66 70 47 69 46 73 68 54 107 40 105 81 98 109 50 84 76 68 29 25 24 24 32 29 33 33 33 33 32 30 29 28 26 27 33 29 31 31 29 26
49 46 79 88 71 52 76 90 90 44 54 107 52 99 114 85 97 79 64 104 96 74 29 26 22 28 28 32 33 35 35 36 37 36 34 32 31 30 27 27 34 33 31 28
70 71 93 74 82 94 68 99 84 97 82 42 60 111 112 104 88 87 83 109 106 20 29 27 24 30 26 27 30 33 36 37 38 37 37 36 35 32 31 31 27 31 33 33
72 91 35 102 81 74 78 46 47 79 109 104 68 117 110 101 94 109 81 104 76 58 22 27 29 33 24 26 29 30 33 37 40 40 38 38 38 36 36 35 36 34 32 34
97 80 71 66 104 95 104 40 96 90 114 113 114 107 111 104 102 68 77 93 89 88 15 31 33 32 26 25 27 31 31 31 33 33 34 37 40 43 44 44 44 42 40 38
56 91 92 89 93 96 87 102 112 111 111 113 115 113 112 79 90 78 107 112 55 113 24 19 37 34 30 27 26 31 31 31 33 32 33 35 36 37 37 37 38 38 42 50
74 80 107 100 59 92 114 102 116 117 118 110 117 117 104 66 105 122 70 80 95 107 25 24 34 37 35 32 33 32 30 30 30 33 33 33 33 34 35 30 32 33 42 42
108 100 105 83 104 109 105 117 119 120 110 121 119 107 113 76 98 103 110 118 103 82 27 28 29 38 38 36 35 32 29 29 27 30 28 29 31 25 18 22 19 15 17 15
106 109 78 102 104 98 114 114 113 118 125 90 119 119 118 72 117 104 118 122 111 27 30 31 30 32 39 39 33 31 31 29 30 29 29 28 29 23 23 25 14 19 18 17
Wind_Direction
309 308 308 318 322 337 331 307 324 330 323 329 10 354 352 344 347 351 316 330 352 344 345 357 3 17 13 28 24 34 195 188 195 195 201 207 213 213 209 209 215 216 221 225
312 309 309 323 319 332 329 239 328 324 313 322 347 346 330 2 350 331 282 320 359 340 342 6 5 9 15 25 36 34 101 184 193 199 199 209 215 215 213 213 219 217 222 224
301 307 311 337 325 327 327 271 338 332 322 4 345 359 349 354 353 323 268 307 358 333 337 348 353 6 19 27 23 36 59 189 185 195 200 204 214 219 218 214 218 220 222 225
301 292 311 335 339 325 224 331 266 281 317 1 357 1 335 3 353 306 297 351 354 320 331 340 52 6 26 31 29 28 26 164 185 189 193 202 206 210 211 217 218 218 220 227
298 303 311 311 310 92 325 282 318 315 310 7 349 11 358 340 346 283 346 348 352 286 317 326 23 335 29 39 43 30 18 175 184 184 190 195 202 210 213 215 220 224 231 235
293 303 314 312 324 326 323 318 314 346 348 357 342 340 349 347 357 275 291 239 355 263 283 304 330 330 11 40 59 49 39 174 180 182 184 198 202 207 209 214 221 224 223 231
294 307 305 319 316 313 331 322 330 331 339 352 330 352 351 1 345 272 280 339 343 309 261 260 277 266 304 333 56 73 66 143 172 182 186 196 204 207 209 216 220 227 237 246
293 304 323 319 309 310 273 313 318 348 347 352 321 348 338 334 341 312 337 269 228 272 237 239 249 215 267 291 328 91 92 98 160 198 207 207 215 204 213 218 234 232 231 238
297 304 315 309 312 242 313 288 320 333 352 348 357 356 2 344 345 4 341 333 228 244 254 247 235 227 230 234 241 165 144 129 129 160 195 211 213 216 218 221 245 239 233 220
292 295 312 309 311 308 337 313 302 354 336 357 338 347 352 354 346 5 331 342 231 231 256 246 225 227 223 216 205 242 200 194 271 172 162 168 190 208 205 205 208 214 211 211
287 300 302 283 325 335 323 287 320 347 336 341 323 340 345 343 354 350 8 256 234 235 234 243 249 225 225 228 225 240 221 234 197 193 183 187 184 204 206 200 209 213 212 218
282 303 290 299 316 302 304 337 329 343 347 356 333 348 339 355 351 356 345 358 312 243 238 234 240 244 238 224 228 214 219 217 221 201 208 212 209 213 214 220 221 220 228 236
286 294 292 290 286 301 324 334 328 325 313 349 330 345 352 333 329 354 5 359 262 268 245 239 238 239 242 242 228 223 223 239 221 238 225 240 231 224 227 221 246 250 247 247
287 291 289 292 292 318 302 323 320 335 337 324 349 346 330 353 341 353 2 339 304 258 239 242 237 239 239 241 243 227 224 231 240 235 238 246 228 237 249 253 254 249 252 254
279 284 299 284 311 322 305 331 322 347 340 347 339 336 351 346 352 352 341 334 355 268 260 238 241 242 242 239 239 245 228 229 230 232 234 237 240 242 244 248 250 251 251 251
277 286 282 294 319 305 298 308 343 323 313 337 331 347 345 338 348 355 346 358 358 336 265 249 236 237 244 243 243 243 245 232 234 235 232 231 233 237 239 241 243 245 246 245
280 281 303 303 289 320 323 321 333 317 335 323 326 332 323 334 331 343 333 329 353 350 281 258 241 235 237 243 244 245 247 249 249 246 247 244 244 248 245 247 251 253 252 251
273 292 291 295 312 317 316 318 300 297 318 335 340 333 342 342 346 340 339 350 342 343 281 270 254 235 237 239 243 246 247 250 252 250 251 252 248 249 247 251 255 254 250 248
293 287 298 308 297 315 304 296 308 308 309 334 333 313 341 337 343 348 323 343 325 339 272 267 255 247 236 237 238 241 244 246 250 253 252 253 254 254 251 258 257 254 252 250
294 295 303 306 312 293 320 321 327 298 313 332 327 338 335 330 341 320 326 349 347 341 260 260 256 251 243 236 240 243 244 245 248 250 253 254 255 255 255 259 258 253 252 250
280 289 300 308 302 310 315 317 313 328 327 306 312 333 333 333 336 343 327 345 347 315 253 251 252 253 251 245 238 244 246 246 248 249 250 251 254 257 259 258 251 261 257 254
293 296 295 302 300 309 307 299 296 330 324 328 317 328 331 334 337 339 325 345 331 339 248 252 244 250 246 249 246 243 244 242 246 249 251 255 257 257 259 261 261 256 251 250
291 297 284 307 304 309 311 298 324 327 319 323 326 329 327 332 340 318 307 336 341 346 267 251 247 247 242 238 245 246 248 249 248 248 247 252 256 258 258 257 256 255 253 250
287 296 295 304 299 311 315 314 313 319 320 320 323 326 330 311 334 321 340 341 323 341 256 243 248 245 239 233 237 240 243 247 249 249 251 253 254 257 258 257 257 257 259 254
297 302 294 302 302 313 305 317 313 314 315 323 321 322 327 317 331 334 313 326 336 337 256 239 243 245 242 235 234 234 235 239 245 247 250 254 258 258 260 262 263 263 262 260
287 295 296 308 303 305 312 307 308 312 319 315 318 324 326 321 335 328 335 331 332 329 252 248 234 243 241 239 235 235 236 236 243 249 262 258 256 260 257 260 264 267 272 282
289 291 308 301 305 306 305 307 312 309 308 315 317 318 324 330 328 329 328 330 331 242 244 244 233 229 239 238 239 236 235 237 241 248 251 254 256 252 251 263 239 255 264 273